EW8749 Weather Reports


time (UTC)temp
F
wind
direction
speed
knots
gust
knots
rain 1hr
in
rain 24hr
in
rain mn
in
humidity
%
barometer
mb
20260906100029 49 326 0.0 0.0 0.00 0.04 0.00 88 1022.6
20260906094535 50 277 0.0 0.0 0.00 0.05 0.00 87 1022.6
20260906093026 50 246 0.0 0.0 0.00 0.05 0.00 87 1022.5
20260906091524 50 328 0.0 0.0 0.00 0.05 0.00 87 1022.4
20260906090024 50 320 0.0 0.9 0.00 0.05 0.00 87 1022.2
20260906084525 51 304 0.0 0.0 0.00 0.05 0.00 86 1022.1
20260906083020 51 274 0.0 6.1 0.00 0.05 0.00 86 1021.8
20260906081536 51 268 0.0 0.9 0.00 0.05 0.00 85 1021.6
20260906080017 52 303 0.0 0.0 0.00 0.05 0.00 84 1021.5
20260906074515 53 289 0.0 0.0 0.00 0.08 0.00 82 1021.4
20260906073012 54 302 0.0 7.0 0.00 0.08 0.00 79 1021.1
20260906071509 55 310 0.0 0.0 0.00 0.08 0.00 78 1020.7
20260906070010 56 308 0.0 0.0 0.00 0.08 0.00 76 1020.8
20260906064509 56 332 0.0 6.1 0.00 0.13 0.00 75 1020.6
20260906063008 56 261 0.0 7.8 0.00 0.13 0.00 75 1020.4
20260906061508 57 283 0.0 7.8 0.00 0.13 0.00 74 1020.5
20260906060006 58 301 0.0 5.2 0.00 0.13 0.00 72 1020.5
20260906054505 58 330 0.0 7.0 0.00 0.13 0.00 72 1020.6
20260906053005 58 279 0.0 7.0 0.00 0.13 0.00 71 1020.7
20260906051503 58 253 0.0 1.7 0.00 0.13 0.00 71 1020.5
20260906050002 58 311 0.0 7.8 0.00 0.23 0.00 70 1020.2
20260906044600 58 239 0.0 5.2 0.00 0.23 0.00 70 1020.1
20260906043158 58 315 0.0 4.3 0.00 0.23 0.00 71 1019.9
20260906041557 57 320 0.0 9.6 0.00 0.23 0.00 73 1019.9
20260906040119 57 282 0.0 7.8 0.00 0.23 0.00 72 1019.6
20260906034602 58 232 0.0 7.8 0.00 0.28 0.00 72 1019.3
20260906033050 57 263 0.0 7.0 0.00 0.28 0.00 73 1019.3
20260906031552 57 322 0.0 6.1 0.00 0.28 0.00 74 1019.2
20260906030047 57 275 0.0 8.7 0.00 0.28 0.00 73 1019.3
20260906024545 57 261 0.0 0.0 0.00 0.28 0.00 71 1019.2
20260906023048 57 239 0.0 7.8 0.00 0.28 0.00 72 1019.2
20260906021540 56 197 0.0 2.6 0.00 0.28 0.00 73 1019.3
20260906020050 56 261 0.9 8.7 0.00 0.28 0.00 72 1019.3
20260906014542 56 326 0.0 3.5 0.00 0.28 0.00 73 1019.2
20260906013038 55 295 0.0 7.0 0.00 0.28 0.00 74 1019.2
20260906011531 55 314 0.0 5.2 0.00 0.28 0.00 73 1019.2
20260906010027 54 306 0.0 12.2 0.00 0.28 0.00 74 1019.1
20260906004524 54 270 1.7 8.7 0.00 0.31 0.00 74 1019.0
20260906003025 53 55 1.7 11.3 0.00 0.31 0.00 75 1018.7
20260906001518 53 12 0.0 6.1 0.00 0.31 0.00 75 1018.8
20260906000016 52 225 0.0 6.1 0.00 0.31 0.00 76 1018.7
20260905234513 52 289 0.9 11.3 0.00 0.34 0.00 75 1018.6
20260905233012 52 239 0.0 7.0 0.00 0.34 0.00 78 1018.7
20260905231507 51 248 0.0 8.7 0.00 0.34 0.00 77 1018.5
20260905230003 50 241 0.0 9.6 0.00 0.35 0.00 80 1018.5
20260905224609 50 259 1.7 9.6 0.00 0.35 0.00 79 1018.3
20260905223059 50 281 0.0 10.4 0.00 0.35 0.00 80 1018.1
20260905214554 48 234 0.0 7.0 0.00 0.35 0.00 82 1017.6
20260905213057 47 290 0.0 4.3 0.00 0.35 0.00 82 1017.5
20260905211550 46 292 0.0 2.6 0.00 0.35 0.00 83 1017.1
20260905210105 46 351 0.9 10.4 0.00 0.35 0.00 83 1016.3
20260905204548 45 252 0.0 4.3 0.00 0.35 0.00 85 1016.1
20260905203046 45 275 0.0 1.7 0.00 0.35 0.00 85 1016.3
20260905201548 45 235 0.0 0.0 0.00 0.35 0.00 85 1016.2
20260905200056 45 292 0.0 0.0 0.00 0.35 0.00 84 1016.0
20260905194540 46 260 0.0 8.7 0.00 0.35 0.00 85 1015.7
20260905193038 46 255 0.0 4.3 0.00 0.35 0.00 85 1015.5
20260905191540 46 237 0.0 0.9 0.00 0.35 0.00 85 1015.3
20260905190034 46 332 0.0 0.0 0.00 0.35 0.00 84 1015.0
20260905184536 46 283 0.0 2.6 0.00 0.35 0.00 83 1014.8
20260905183031 46 223 0.0 7.0 0.00 0.35 0.00 83 1014.8
20260905181528 47 257 0.0 7.8 0.00 0.35 0.00 82 1014.6
20260905180028 47 249 0.0 7.8 0.00 0.35 0.00 81 1014.5
20260905174525 47 251 0.0 6.1 0.00 0.35 0.00 80 1014.4
20260905173025 47 249 0.0 5.2 0.00 0.35 0.00 80 1014.4
20260905171536 47 247 0.0 4.3 0.00 0.35 0.00 81 1013.9
20260905170024 47 189 2.6 15.6 0.00 0.35 0.00 81 1013.0
20260905164517 47 251 7.0 17.4 0.00 0.35 0.00 80 1011.8
20260905163017 48 234 6.1 17.4 0.00 0.35 0.00 78 1011.9
20260905161511 47 257 8.7 20.0 0.00 0.35 0.00 78 1012.3
20260905160015 47 228 6.1 16.5 0.00 0.35 0.00 79 1013.0
20260905154504 48 283 3.5 16.5 0.00 0.35 0.00 78 1013.1
20260905153003 48 239 3.5 13.9 0.00 0.35 0.00 78 1012.9
20260905151600 49 234 7.8 17.4 0.00 0.35 0.00 76 1013.2
20260905150058 49 230 2.6 13.0 0.00 0.35 0.00 76 1012.9
20260905144557 49 214 0.0 10.4 0.00 0.35 0.00 78 1012.8
20260905143053 48 249 2.6 10.4 0.00 0.35 0.00 81 1012.9
20260905141550 48 217 2.6 12.2 0.00 0.35 0.00 81 1012.8
20260905140046 48 232 0.9 13.0 0.00 0.35 0.00 81 1012.5
20260905134551 48 321 0.9 9.6 0.02 0.35 0.35 82 1012.7
20260905133045 48 222 0.0 15.6 0.04 0.35 0.35 83 1012.8
20260905131544 48 239 3.5 13.0 0.04 0.35 0.35 83 1012.5
20260905130042 48 215 1.7 8.7 0.04 0.35 0.35 87 1012.5
20260905124547 49 284 0.0 9.6 0.02 0.34 0.34 85 1012.5
20260905123039 50 296 1.7 15.6 0.00 0.31 0.31 77 1011.8
20260905121538 51 270 1.7 13.9 0.00 0.31 0.31 76 1011.8
20260905120038 51 244 0.0 7.0 0.00 0.31 0.31 75 1011.5
20260905114538 52 221 0.9 6.1 0.00 0.31 0.31 74 1011.8
20260905113037 52 260 0.0 3.5 0.00 0.31 0.31 73 1011.9
20260905111536 53 235 0.0 7.0 0.00 0.31 0.31 72 1012.2
20260905110035 53 264 0.0 7.8 0.00 0.31 0.31 72 1012.2
20260905104543 53 256 0.0 9.6 0.00 0.31 0.31 72 1011.9
20260905103036 53 226 0.0 7.0 0.00 0.31 0.31 74 1011.8
20260905101533 54 226 2.6 15.6 0.00 0.31 0.31 76 1011.6